When you browse on this site, cookies collect data to enhance your experience and personalize the content and advertising you see.
Visit our Privacy Policy to learn more. By continuing to use the site, you agree to this use of cookies and data.
EN

Hourly Weather Santa Fe

Today, 9 July, Thursday

Time Temperature Precipitation Wind Pressure Humidity
00:00 +8°C° 0 mm 1 mps 765 mmHg 80%
01:00 +7°C° 0 mm 1 mps 765 mmHg 80%
02:00 +7°C° 0 mm 1 mps 765 mmHg 81%
03:00 +7°C° 0 mm 1 mps 765 mmHg 82%
04:00 +6°C° 0 mm 1 mps 765 mmHg 83%
05:00 +6°C° 0 mm 1 mps 765 mmHg 85%
06:00 +6°C° 0 mm 1 mps 765 mmHg 84%
07:00 +7°C° 0 mm 1 mps 765 mmHg 83%
08:00 +7°C° 0 mm 1 mps 765 mmHg 82%
09:00 +9°C° 0 mm 1 mps 765 mmHg 75%
10:00 +10°C° 0 mm 2 mps 765 mmHg 67%
11:00 +13°C° 0 mm 2 mps 765 mmHg 59%
12:00 +14°C° 0 mm 2 mps 764 mmHg 56%
13:00 +14°C° 0 mm 3 mps 764 mmHg 53%
14:00 +16°C° 0 mm 3 mps 763 mmHg 51%
15:00 +14°C° 0 mm 3 mps 762 mmHg 56%
16:00 +13°C° 0 mm 3 mps 761 mmHg 61%
17:00 +12°C° 0 mm 3 mps 761 mmHg 66%
18:00 +11°C° 0 mm 3 mps 761 mmHg 70%
19:00 +10°C° 0 mm 3 mps 761 mmHg 74%
20:00 +9°C° 0 mm 3 mps 761 mmHg 78%
21:00 +9°C° 0 mm 3 mps 760 mmHg 78%
22:00 +8°C° 0 mm 4 mps 760 mmHg 79%
23:00 +8°C° 0 mm 4 mps 760 mmHg 79%

Tomorrow, 10 July, Friday

Time Temperature Precipitation Wind Pressure Humidity
00:00 +8°C° 0 mm 5 mps 759 mmHg 79%
01:00 +8°C° 0 mm 5 mps 758 mmHg 80%
02:00 +8°C° 0 mm 5 mps 758 mmHg 80%
03:00 +7°C° 0 mm 5 mps 757 mmHg 82%
04:00 +7°C° 0 mm 4 mps 757 mmHg 84%
05:00 +6°C° 0 mm 4 mps 757 mmHg 86%
06:00 +7°C° 0 mm 4 mps 757 mmHg 85%
07:00 +7°C° 0 mm 4 mps 757 mmHg 84%
08:00 +7°C° 0 mm 4 mps 757 mmHg 83%
09:00 +10°C° 0 mm 4 mps 757 mmHg 77%
10:00 +12°C° 0 mm 4 mps 758 mmHg 70%
11:00 +14°C° 0 mm 4 mps 758 mmHg 64%
12:00 +16°C° 0 mm 3 mps 757 mmHg 62%
13:00 +17°C° 0 mm 2 mps 757 mmHg 60%
14:00 +19°C° 0 mm 1 mps 757 mmHg 57%
15:00 +18°C° 0 mm 1 mps 757 mmHg 62%
16:00 +16°C° 0 mm 1 mps 757 mmHg 66%
17:00 +15°C° 0 mm 1 mps 757 mmHg 71%
18:00 +15°C° 0 mm 1 mps 758 mmHg 73%
19:00 +14°C° 0 mm 2 mps 759 mmHg 75%
20:00 +14°C° 0 mm 2 mps 760 mmHg 76%
21:00 +13°C° 0 mm 2 mps 761 mmHg 78%
22:00 +12°C° 0 mm 2 mps 761 mmHg 81%
23:00 +11°C° 0 mm 1 mps 762 mmHg 83%

Day after tomorrow, 11 July, Saturday

Time Temperature Precipitation Wind Pressure Humidity
00:00 +11°C° 0 mm 1 mps 762 mmHg 83%
01:00 +10°C° 0 mm 2 mps 762 mmHg 84%
02:00 +9°C° 0 mm 2 mps 762 mmHg 84%
03:00 +9°C° 0 mm 2 mps 762 mmHg 85%
04:00 +8°C° 0 mm 2 mps 762 mmHg 85%
05:00 +8°C° 0 mm 3 mps 762 mmHg 86%
06:00 +8°C° 0 mm 2 mps 762 mmHg 82%
07:00 +8°C° 0 mm 2 mps 762 mmHg 78%
08:00 +8°C° 0 mm 2 mps 762 mmHg 75%
09:00 +10°C° 0 mm 2 mps 762 mmHg 66%
10:00 +13°C° 0 mm 2 mps 762 mmHg 58%
11:00 +15°C° 0 mm 2 mps 761 mmHg 49%
12:00 +16°C° 0 mm 2 mps 761 mmHg 47%
13:00 +17°C° 0 mm 2 mps 760 mmHg 45%
14:00 +18°C° 0 mm 2 mps 759 mmHg 42%
15:00 +16°C° 0 mm 2 mps 758 mmHg 48%
16:00 +15°C° 0 mm 1 mps 758 mmHg 53%
17:00 +14°C° 0 mm 1 mps 757 mmHg 58%
18:00 +13°C° 0 mm 1 mps 757 mmHg 62%
19:00 +13°C° 0 mm 2 mps 758 mmHg 66%
20:00 +12°C° 0 mm 2 mps 758 mmHg 71%
21:00 +10°C° 0 mm 2 mps 758 mmHg 74%
22:00 +11°C° 0 mm 1 mps 758 mmHg 78%
23:00 +10°C° 0 mm 1 mps 758 mmHg 82%

12 July, Sunday

Time Temperature Precipitation Wind Pressure Humidity
00:00 +10°C° 0 mm 1 mps 758 mmHg 84%
01:00 +10°C° 0 mm 1 mps 757 mmHg 85%
02:00 +10°C° 0 mm 1 mps 757 mmHg 87%
03:00 +10°C° 0 mm 1 mps 757 mmHg 88%
04:00 +10°C° 0 mm 1 mps 756 mmHg 89%
05:00 +9°C° 0 mm 1 mps 756 mmHg 90%
06:00 +10°C° 0 mm 1 mps 756 mmHg 90%
07:00 +10°C° 0 mm 1 mps 756 mmHg 89%
08:00 +11°C° 0 mm 1 mps 757 mmHg 89%
09:00 +13°C° 0 mm 1 mps 757 mmHg 80%
10:00 +15°C° 0 mm 1 mps 757 mmHg 72%
11:00 +18°C° 0 mm 1 mps 757 mmHg 64%
12:00 +19°C° 0 mm 1 mps 757 mmHg 61%
13:00 +19°C° 0 mm 2 mps 756 mmHg 58%
14:00 +20°C° 0 mm 2 mps 756 mmHg 55%
15:00 +19°C° 0 mm 2 mps 756 mmHg 59%
16:00 +18°C° 0 mm 2 mps 756 mmHg 63%
17:00 +18°C° 0 mm 1 mps 756 mmHg 67%
18:00 +16°C° 0 mm 2 mps 757 mmHg 70%
19:00 +15°C° 0 mm 2 mps 757 mmHg 72%
20:00 +14°C° 0 mm 2 mps 757 mmHg 75%
21:00 +13°C° 0 mm 2 mps 758 mmHg 76%
22:00 +12°C° 0 mm 2 mps 758 mmHg 78%
23:00 +12°C° 0 mm 2 mps 759 mmHg 79%

13 July, Monday

Time Temperature Precipitation Wind Pressure Humidity
00:00 +10°C° 0 mm 2 mps 759 mmHg 80%
01:00 +10°C° 0 mm 2 mps 759 mmHg 81%
02:00 +10°C° 0 mm 2 mps 759 mmHg 83%
03:00 +9°C° 0 mm 2 mps 759 mmHg 82%
04:00 +9°C° 0 mm 2 mps 760 mmHg 82%
05:00 +8°C° 0 mm 3 mps 760 mmHg 82%
06:00 +8°C° 0 mm 3 mps 760 mmHg 80%
07:00 +9°C° 0 mm 3 mps 761 mmHg 78%
08:00 +9°C° 0 mm 3 mps 762 mmHg 77%
09:00 +10°C° 0 mm 3 mps 762 mmHg 69%
10:00 +12°C° 0 mm 3 mps 763 mmHg 62%
11:00 +14°C° 0 mm 4 mps 763 mmHg 55%
12:00 +15°C° 0 mm 4 mps 763 mmHg 52%
13:00 +15°C° 0 mm 4 mps 763 mmHg 49%
14:00 +17°C° 0 mm 4 mps 763 mmHg 46%
15:00 +15°C° 0 mm 4 mps 763 mmHg 49%
16:00 +14°C° 0 mm 3 mps 764 mmHg 53%
17:00 +13°C° 0 mm 3 mps 764 mmHg 56%
18:00 +12°C° 0 mm 3 mps 764 mmHg 58%
19:00 +11°C° 0 mm 3 mps 765 mmHg 59%
20:00 +10°C° 0 mm 2 mps 765 mmHg 61%
21:00 +9°C° 0 mm 2 mps 765 mmHg 61%
22:00 +9°C° 0 mm 2 mps 766 mmHg 61%
23:00 +8°C° 0 mm 2 mps 766 mmHg 61%

14 July, Tuesday

Time Temperature Precipitation Wind Pressure Humidity
00:00 +8°C° 0 mm 2 mps 766 mmHg 62%
01:00 +7°C° 0 mm 2 mps 766 mmHg 62%
02:00 +8°C° 0 mm 1 mps 766 mmHg 63%
03:00 +6°C° 0 mm 2 mps 766 mmHg 64%
04:00 +6°C° 0 mm 2 mps 766 mmHg 64%
05:00 +5°C° 0 mm 2 mps 766 mmHg 65%
06:00 +6°C° 0 mm 2 mps 767 mmHg 65%
07:00 +7°C° 0 mm 1 mps 767 mmHg 64%
08:00 +7°C° 0 mm 1 mps 767 mmHg 64%
09:00 +8°C° 0 mm 2 mps 768 mmHg 57%
10:00 +10°C° 0 mm 2 mps 768 mmHg 50%
11:00 +13°C° 0 mm 2 mps 768 mmHg 43%
12:00 +13°C° 0 mm 2 mps 767 mmHg 40%
13:00 +14°C° 0 mm 2 mps 767 mmHg 37%
14:00 +15°C° 0 mm 2 mps 766 mmHg 34%
15:00 +14°C° 0 mm 2 mps 766 mmHg 38%
16:00 +13°C° 0 mm 2 mps 766 mmHg 42%
17:00 +12°C° 0 mm 2 mps 766 mmHg 46%
18:00 +10°C° 0 mm 2 mps 766 mmHg 48%
19:00 +9°C° 0 mm 2 mps 766 mmHg 50%
20:00 +8°C° 0 mm 2 mps 767 mmHg 51%
21:00 +7°C° 0 mm 2 mps 767 mmHg 53%
22:00 +7°C° 0 mm 2 mps 767 mmHg 54%
23:00 +6°C° 0 mm 2 mps 767 mmHg 55%
Show more